Location: Moscow
(55.7500°N, 37.5830°E)
Time: 11:52:34
(UTC+03:00)

Vanguard 3 - Pass Details

Date: 04 December 2021
Orbit: 508 x 3260 km, 33.3° (Epoch: 19 January)

Event Time Altitude Azimuth Distance (km) Brightness Sun altitude
Rises 07:26:07 0° 255° (WSW) 7,199 11.5 -9.5°
Reaches altitude 10° 07:32:12 10° 246° (WSW) 6,024 11.2 -8.7°
Maximum altitude 07:45:44 28° 198° (SSW) 3,975 10.8 -7.0°
Drops below altitude 10° 07:55:40 10° 146° (SSE) 4,336 12.1 -5.8°
Sets 07:59:10 0° 135° (SE) 4,943 13.2 -5.4°
